Location: *
(34.6903°N, 135.5184°E)
Time: 17:35:21
(UTC+00:00)

Cosmos 1315 Rocket - Pass Details

Date: 22 September 2019
Orbit: 529 x 569 km, 81.2° (Epoch: 19 October)

Event Time Altitude Azimuth Distance (km) Brightness Sun altitude
Exits shadow 18:42:27 35° 2° (N) 937 4.1 -25.7°
Drops below altitude 10° 18:44:53 10° 6° (N) 1,875 5.8 -25.3°
Sets 18:47:05 0° 8° (N) 2,774 6.8 -24.8°
